National Weather Service Raw Text Product

Displaying AFOS PIL: RWRIL Received: 2017-10-19 00:00 UTC


663 
ASUS43 KLOT 182359
RWRIL 

ILLINOIS REGIONAL WEATHER ROUNDUP
NATIONAL WEATHER SERVICE CHICAGO/ROMEOVILLE IL
700 PM CDT WED OCT 18 2017

NOTE: "FAIR" INDICATES FEW OR NO CLOUDS BELOW 12,000 FEET WITH NO
SIGNIFICANT WEATHER AND/OR OBSTRUCTIONS TO VISIBILITY.

* THESE STATIONS ARE NOT UNDER NWS QUALITY CONTROL. THEY ALSO MAY NOT
  REPORT WEATHER SUCH AS PRECIPITATION OR FOG.

ILZ001-002-007-009-015-016-024-190100-
NORTHWEST ILLINOIS
  
CITY           SKY/WX    TMP DP  RH WIND       PRES   REMARKS
MOLINE         NOT AVBL                                               
$$

ILZ003-004-008-010-011-017-018-190100-
NORTH CENTRAL ILLINOIS
  
CITY           SKY/WX    TMP DP  RH WIND       PRES   REMARKS
ROCKFORD       NOT AVBL                                               
$$

ILZ005-006-012>014-019>023-190100-
NORTHEAST ILLINOIS
  
CITY           SKY/WX    TMP DP  RH WIND       PRES   REMARKS
CHICAGO-OHARE  PTCLDY    66  41  40 S12       30.03R                  
6HR MIN TEMP:  66; 6HR MAX TEMP:  71;                                

CHICAGO-MIDWAY NOT AVBL                                               
AURORA         NOT AVBL                                               
WAUKEGAN       NOT AVBL                                               
DUPAGE AIRPORT NOT AVBL                                               
WHEELING       NOT AVBL                                               
NORTHERLY ISL    N/A     67  37  33 S14         N/A                   
$$

LMZ740>746-190100-
SOUTHERN LAKE MICHIGAN
  
STATION/POSITION SKY/WX   TEMP    WIND        PRES    VSBY  WAVE
                          AIR SEA DIR/SP/G                  HT/PER
                          (F)     (DEG/KT/KT) (MB)    (MI)  (FT/S)
SOUTHERN BUOY              64 61  180/ 21/ 23 1015.4F         4/ 5
WILMETTE HARBOR            65 58  200/ 10/ 14   N/A           2/ 4
HARRISON CRIB              68     200/ 21/ 24   N/A
BURNHAM HARBOR             67     210/ 10/ 21   N/A
CALUMET HARBOR             67     180/ 12/ 17 1016.2F
BURNS HARBOR               65     190/ 13/ 16 1017.9S
MICHIGAN CITY              65     160/ 12/ 14   N/A
MICHIGAN CITY 6N           63 58  190/ 10/ 14   N/A           2/ 3
ST. JOSEPH                 62 58  190/ 12/ 14 1017.8R         2/ 4
$$

ILZ025>027-034>036-040-047-049-050-058-095>099-190100-
WEST-CENTRAL ILLINOIS
  
CITY           SKY/WX    TMP DP  RH WIND       PRES   REMARKS
$$

ILZ028>032-037-038-041>044-048-051>054-059>061-190100-
CENTRAL ILLINOIS
  
CITY           SKY/WX    TMP DP  RH WIND       PRES   REMARKS
PEORIA         NOT AVBL                                               
SPRINGFIELD    NOT AVBL                                               
TAYLORVILLE    NOT AVBL                                               
$$

ILZ033-039-045-046-055>057-062-063-190100-
EAST-CENTRAL ILLINOIS
  
CITY           SKY/WX    TMP DP  RH WIND       PRES   REMARKS
$$

ILZ079-100>102-190100-
SOUTHWEST ILLINOIS
  
CITY           SKY/WX    TMP DP  RH WIND       PRES   REMARKS
$$

ILZ064>066-069>071-074>076-080>082-084>086-088>090-092>094-190100-
SOUTH-CENTRAL ILLINOIS
  
CITY           SKY/WX    TMP DP  RH WIND       PRES   REMARKS
CARBONDALE     CLEAR     62  48  60 S8        30.16R                  
6HR MIN TEMP:  62; 6HR MAX TEMP:  73;                                

MARION         CLEAR     61  48  63 S12       30.17R                  
$$

ILZ067-068-072-073-078-083-087-091-190100-
SOUTHEAST ILLINOIS
  
CITY           SKY/WX    TMP DP  RH WIND       PRES   REMARKS
$$

ABBREVIATIONS USED IN REMARKS
   TC - TEMPERATURE IN CELSIUS
  WCI - WIND CHILL INDEX
   HX - HEAT INDEX
  VSB - VISIBILITY
$$